{"data":{"norad_id":57717,"intl_designator":"2023-129V","name":"STARLINK-30325","alt_names":[],"object_type":"PAYLOAD","status":"ACTIVE","operator":null,"country":"US","launch_date":"2023-08-27","launch_site_code":"AFETR","launch_vehicle":null,"mission":null,"orbit_class":"UNKNOWN","rcs_meters":null,"size_class":null,"mass_kg":null,"dimensions":null,"purposes":["comms"],"wikipedia_slug":null,"has_3d_model":false,"image_url":null,"decayed_at":null,"tle_current":{"epoch":"2026-09-20T22:50:21.107616Z","epoch_age_seconds":92123,"freshness":"FRESH","line1":"1 57717U 23129V   26263.95163319  .00001406  00000+0  60582-4 0  9995","line2":"2 57717  43.0017  95.3092 0001264 266.6537  93.4170 15.27583911170543","mean_motion":15.27583911,"eccentricity":0.0001264,"inclination_deg":43.0017,"raan_deg":95.3092,"arg_perigee_deg":266.6537,"mean_anomaly_deg":93.417,"bstar":6.0582e-5,"rev_number":17054,"period_min":94.266507367005,"perigee_km":482.17013268138,"apogee_km":483.90463756594,"semimajor_km":6861.1743851237,"source":"CELESTRAK","updated_at":"2026-09-21T09:00:33.677424Z"}}}